Temp
-6 -7 -6 -6 -6 -6 -6 -6 -6 -6 -6 -6 -6 -6 -6 -6 -6 -6 -6 -6 -6 -5 -5 -5 -5 -5 -5 -5 -5 -5 -5 -5 -5 -5 -5 -5 -5 -5 -5 -5 -5 -5 -5 -5 -5 -5 -5 -6 -6 -6 -6 -6 -6 -6 -6 -6 -6 -6 -6 -6 -6 -6 -6
-6 -6 -7 -6 -6 -6 -6 -6 -6 -6 -6 -6 -6 -6 -6 -6 -6 -6 -5 -5 -6 -5 -5 -5 -5 -5 -5 -5 -5 -5 -5 -5 -5 -5 -5 -5 -5 -5 -5 -5 -5 -5 -5 -5 -5 -5 -6 -6 -6 -6 -6 -6 -6 -6 -6 -6 -6 -6 -6 -6 -6 -6 -6
-5 -5 -6 -6 -6 -6 -6 -6 -6 -6 -6 -6 -6 -6 -6 -6 -6 -6 -6 -5 -5 -5 -5 -5 -5 -5 -5 -5 -5 -5 -5 -5 -5 -5 -5 -5 -5 -5 -5 -5 -5 -5 -5 -5 -5 -5 -6 -6 -6 -6 -6 -6 -6 -6 -6 -6 -6 -6 -6 -6 -6 -6 -6
-4 -4 -5 -6 -6 -6 -6 -6 -7 -6 -6 -6 -6 -6 -7 -7 -6 -6 -6 -5 -5 -5 -5 -5 -5 -5 -5 -5 -5 -5 -5 -5 -5 -5 -5 -5 -5 -5 -5 -5 -5 -5 -5 -5 -5 -5 -6 -6 -6 -6 -6 -6 -6 -6 -6 -6 -6 -6 -6 -6 -6 -6 -6
-4 -4 -5 -5 -6 -6 -6 -6 -7 -6 -6 -6 -6 -6 -7 -7 -6 -6 -6 -6 -5 -5 -5 -5 -5 -5 -5 -5 -5 -5 -5 -5 -5 -5 -5 -4 -5 -5 -5 -5 -5 -5 -5 -5 -5 -5 -6 -6 -6 -6 -6 -6 -6 -5 -5 -6 -6 -6 -6 -6 -6 -6 -6
-5 -5 -5 -5 -6 -6 -6 -6 -7 -7 -6 -6 -6 -6 -6 -7 -6 -6 -6 -6 -5 -5 -5 -5 -5 -5 -5 -5 -5 -5 -5 -5 -5 -5 -4 -4 -4 -5 -5 -5 -5 -5 -5 -5 -5 -5 -5 -5 -5 -5 -5 -5 -5 -5 -5 -5 -6 -6 -6 -6 -6 -6 -6
-5 -5 -5 -6 -6 -6 -6 -7 -7 -7 -6 -6 -6 -6 -6 -6 -6 -6 -6 -6 -5 -5 -5 -5 -5 -5 -5 -5 -5 -5 -5 -5 -5 -5 -4 -4 -4 -5 -5 -5 -5 -5 -5 -5 -5 -5 -5 -5 -5 -5 -5 -5 -5 -5 -5 -5 -5 -6 -6 -6 -6 -6 -6
-6 -5 -5 -6 -6 -6 -6 -7 -7 -7 -7 -6 -6 -6 -6 -6 -6 -6 -6 -6 -5 -5 -5 -5 -5 -5 -5 -5 -5 -4 -4 -5 -5 -5 -4 -4 -4 -5 -5 -5 -5 -5 -5 -5 -5 -5 -5 -5 -5 -5 -5 -5 -5 -5 -5 -5 -5 -6 -6 -6 -6 -6 -6
-6 -6 -6 -6 -6 -6 -6 -6 -7 -7 -6 -6 -6 -6 -6 -6 -6 -6 -6 -6 -5 -5 -5 -5 -5 -5 -5 -5 -5 -4 -4 -4 -4 -4 -4 -4 -4 -5 -5 -5 -5 -5 -5 -5 -5 -5 -5 -5 -5 -5 -5 -5 -5 -5 -5 -5 -6 -6 -6 -6 -6 -6 -7
-7 -6 -6 -6 -6 -6 -6 -6 -7 -7 -6 -6 -6 -6 -6 -6 -6 -6 -6 -6 -5 -5 -5 -5 -5 -5 -5 -5 -5 -5 -4 -4 -4 -4 -4 -4 -5 -5 -5 -5 -5 -5 -5 -5 -5 -5 -5 -5 -5 -5 -5 -5 -5 -5 -5 -6 -6 -6 -6 -6 -6 -6 -7
-7 -7 -7 -7 -7 -7 -6 -6 -7 -6 -6 -6 -6 -6 -6 -6 -6 -6 -6 -6 -5 -5 -5 -5 -5 -5 -5 -5 -5 -5 -5 -4 -4 -4 -4 -4 -5 -5 -5 -5 -5 -5 -5 -5 -5 -5 -5 -5 -5 -5 -5 -5 -5 -5 -6 -6 -6 -6 -6 -6 -6 -6 -7
-7 -7 -7 -7 -7 -7 -7 -6 -6 -6 -6 -6 -6 -6 -6 -6 -6 -6 -6 -6 -6 -5 -5 -5 -5 -5 -5 -5 -5 -5 -5 -5 -5 -5 -5 -5 -5 -5 -5 -5 -5 -5 -4 -4 -4 -4 -4 -4 -5 -5 -5 -5 -5 -5 -6 -6 -6 -6 -6 -6 -6 -6 -6
-6 -7 -7 -7 -7 -8 -7 -7 -6 -6 -6 -6 -6 -6 -6 -6 -6 -6 -6 -6 -6 -5 -5 -5 -5 -5 -6 -5 -5 -5 -5 -5 -5 -5 -5 -5 -5 -5 -5 -5 -5 -5 -4 -4 -4 -4 -4 -4 -5 -5 -5 -5 -5 -5 -6 -6 -6 -6 -6 -6 -6 -6 -6
-5 -6 -6 -7 -7 -8 -8 -7 -7 -6 -6 -6 -6 -6 -6 -6 -6 -7 -7 -6 -6 -5 -5 -5 -5 -5 -6 -5 -5 -5 -5 -5 -5 -5 -5 -5 -5 -5 -5 -5 -5 -5 -4 -4 -4 -4 -4 -4 -5 -5 -5 -5 -5 -5 -6 -6 -6 -6 -6 -6 -6 -6 -6
-4 -5 -6 -6 -7 -7 -8 -8 -8 -7 -7 -6 -6 -6 -6 -6 -7 -7 -7 -6 -6 -5 -5 -5 -5 -5 -5 -5 -5 -5 -6 -6 -6 -6 -5 -5 -5 -5 -5 -5 -5 -4 -4 -4 -4 -4 -4 -4 -5 -5 -5 -5 -5 -5 -6 -6 -6 -6 -6 -6 -6 -6 -6
-4 -5 -5 -6 -7 -7 -8 -8 -8 -7 -7 -6 -6 -6 -6 -6 -6 -6 -6 -6 -6 -5 -5 -5 -5 -5 -5 -5 -5 -6 -6 -6 -6 -6 -6 -6 -6 -5 -5 -5 -5 -5 -4 -4 -5 -5 -5 -5 -5 -5 -5 -5 -5 -5 -6 -6 -6 -6 -6 -6 -6 -6 -6
-5 -5 -5 -5 -6 -7 -7 -8 -8 -8 -7 -7 -6 -6 -6 -6 -6 -6 -6 -6 -6 -6 -5 -5 -5 -5 -5 -6 -6 -6 -6 -6 -6 -6 -6 -6 -6 -6 -5 -5 -5 -5 -5 -5 -5 -5 -5 -5 -5 -5 -5 -5 -5 -6 -6 -6 -6 -6 -6 -6 -6 -6 -6
-5 -5 -5 -5 -6 -7 -7 -7 -8 -8 -7 -7 -6 -6 -6 -6 -6 -6 -6 -6 -6 -6 -6 -5 -5 -5 -5 -6 -6 -6 -6 -6 -6 -6 -6 -6 -6 -6 -5 -5 -5 -5 -5 -5 -5 -5 -5 -5 -5 -6 -5 -5 -5 -6 -6 -6 -6 -6 -6 -6 -6 -6 -6
-5 -5 -5 -5 -6 -6 -7 -7 -8 -8 -8 -7 -6 -6 -6 -6 -6 -6 -6 -6 -6 -6 -6 -6 -6 -6 -6 -6 -6 -6 -6 -6 -6 -6 -6 -6 -6 -6 -5 -5 -5 -5 -5 -5 -5 -5 -5 -6 -6 -6 -6 -5 -6 -6 -6 -6 -5 -6 -6 -6 -6 -6 -6
-5 -5 -5 -6 -6 -7 -7 -8 -8 -8 -8 -7 -7 -7 -7 -7 -7 -7 -7 -6 -6 -6 -6 -6 -6 -6 -6 -6 -6 -6 -6 -6 -6 -6 -6 -6 -6 -6 -5 -5 -5 -6 -6 -6 -6 -6 -6 -6 -6 -6 -6 -6 -6 -6 -6 -6 -6 -6 -6 -6 -6 -6 -6
-5 -5 -5 -6 -7 -7 -8 -8 -8 -8 -8 -8 -7 -7 -7 -7 -7 -7 -7 -7 -7 -6 -6 -6 -6 -6 -6 -6 -6 -6 -6 -6 -6 -6 -6 -6 -6 -6 -6 -6 -6 -6 -6 -6 -6 -6 -6 -6 -6 -6 -6 -6 -6 -6 -6 -6 -6 -6 -6 -6 -6 -6 -7
-6 -6 -6 -6 -7 -7 -8 -8 -8 -8 -8 -8 -8 -7 -7 -7 -7 -7 -7 -7 -7 -7 -7 -7 -7 -7 -7 -6 -6 -6 -6 -6 -6 -6 -6 -6 -6 -6 -6 -6 -6 -6 -6 -6 -6 -6 -6 -6 -6 -6 -6 -6 -6 -6 -6 -6 -6 -6 -6 -6 -6 -6 -7
-7 -6 -7 -7 -7 -8 -8 -8 -8 -8 -8 -8 -8 -8 -7 -7 -7 -8 -7 -7 -7 -7 -7 -7 -7 -7 -7 -7 -7 -7 -7 -7 -7 -7 -7 -7 -7 -7 -7 -7 -7 -7 -7 -7 -6 -6 -6 -6 -6 -6 -6 -6 -6 -6 -6 -7 -6 -6 -6 -6 -6 -7 -7
-7 -7 -7 -7 -7 -8 -8 -8 -8 -8 -8 -8 -8 -7 -7 -7 -7 -8 -7 -7 -7 -7 -7 -7 -7 -7 -7 -7 -7 -7 -7 -7 -7 -7 -7 -7 -7 -7 -7 -7 -7 -7 -7 -7 -7 -7 -7 -6 -6 -6 -6 -6 -6 -6 -7 -7 -7 -7 -7 -7 -7 -7 -7
-7 -7 -7 -7 -7 -8 -8 -8 -8 -8 -8 -8 -8 -7 -7 -7 -7 -7 -7 -7 -7 -7 -7 -7 -7 -7 -7 -7 -7 -7 -7 -7 -7 -7 -8 -8 -7 -7 -7 -7 -7 -7 -7 -7 -7 -7 -6 -6 -6 -6 -6 -7 -7 -7 -7 -7 -7 -7 -7 -7 -7 -7 -7
-7 -7 -7 -7 -7 -8 -8 -8 -8 -8 -8 -8 -7 -7 -7 -7 -7 -7 -7 -7 -7 -7 -7 -7 -8 -8 -8 -8 -8 -8 -8 -8 -8 -8 -8 -8 -8 -8 -8 -7 -7 -7 -7 -7 -7 -7 -6 -6 -6 -6 -6 -6 -7 -7 -7 -7 -7 -7 -7 -7 -7 -7 -7
-7 -7 -7 -7 -7 -8 -8 -8 -8 -8 -8 -8 -8 -8 -7 -7 -7 -7 -7 -7 -7 -7 -8 -8 -8 -8 -8 -8 -8 -8 -8 -8 -8 -8 -8 -8 -8 -8 -8 -8 -7 -7 -7 -7 -7 -7 -7 -6 -6 -6 -6 -6 -7 -7 -7 -7 -7 -7 -7 -7 -7 -7 -7
-7 -7 -7 -7 -8 -8 -8 -8 -8 -8 -8 -8 -8 -8 -8 -7 -7 -7 -7 -8 -8 -8 -8 -8 -8 -8 -8 -8 -8 -8 -8 -8 -8 -8 -8 -8 -8 -8 -8 -8 -8 -7 -7 -7 -7 -7 -7 -7 -7 -7 -7 -7 -7 -7 -8 -8 -7 -7 -7 -7 -7 -7 -7
-8 -8 -7 -7 -8 -8 -8 -8 -8 -8 -8 -8 -8 -8 -8 -8 -8 -8 -8 -8 -8 -8 -8 -8 -8 -8 -8 -8 -8 -8 -8 -8 -8 -8 -8 -8 -8 -8 -8 -8 -8 -8 -8 -8 -7 -7 -7 -7 -7 -7 -7 -7 -7 -7 -8 -8 -8 -8 -7 -7 -7 -7 -7
-8 -8 -8 -7 -8 -8 -8 -8 -8 -8 -8 -8 -8 -8 -8 -8 -8 -8 -8 -8 -8 -8 -8 -8 -8 -8 -8 -8 -8 -8 -8 -8 -8 -8 -8 -8 -8 -8 -8 -8 -8 -8 -8 -8 -8 -8 -8 -8 -8 -8 -8 -8 -8 -8 -7 -7 -8 -8 -8 -8 -8 -8 -8
-8 -8 -8 -7 -8 -8 -8 -8 -8 -8 -8 -8 -8 -8 -8 -8 -8 -8 -8 -8 -8 -8 -8 -8 -8 -8 -8 -8 -8 -8 -8 -8 -8 -8 -8 -8 -8 -8 -8 -8 -8 -8 -8 -8 -8 -8 -8 -8 -8 -8 -8 -8 -8 -8 -8 -8 -8 -8 -8 -8 -8 -8 -8
-8 -8 -8 -8 -8 -8 -8 -8 -8 -8 -8 -8 -8 -8 -8 -8 -8 -8 -8 -8 -8 -8 -8 -8 -8 -8 -8 -8 -8 -8 -8 -8 -8 -8 -8 -8 -8 -8 -8 -8 -8 -8 -8 -8 -8 -8 -8 -8 -8 -8 -8 -8 -8 -8 -8 -8 -8 -8 -8 -8 -8 -8 -8
-8 -8 -8 -8 -8 -8 -8 -8 -8 -8 -8 -8 -8 -8 -8 -8 -8 -8 -8 -8 -8 -8 -8 -8 -8 -8 -8 -8 -8 -8 -8 -8 -8 -8 -8 -8 -8 -8 -8 -8 -8 -8 -8 -8 -8 -8 -8 -8 -8 -8 -8 -8 -8 -8 -8 -8 -8 -8 -8 -8 -8 -8 -8
-8 -8 -8 -8 -8 -8 -8 -8 -8 -8 -8 -8 -8 -8 -8 -8 -8 -8 -8 -8 -8 -8 -8 -8 -8 -8 -8 -8 -8 -8 -8 -8 -8 -8 -8 -8 -8 -8 -8 -8 -8 -8 -8 -8 -8 -8 -8 -8 -8 -8 -8 -8 -8 -8 -8 -8 -8 -8 -8 -8 -8 -8 -8
-8 -8 -8 -8 -8 -8 -8 -8 -8 -8 -8 -8 -8 -8 -8 -8 -8 -8 -8 -8 -8 -8 -8 -8 -8 -8 -8 -8 -7 -8 -8 -8 -8 -8 -8 -8 -8 -8 -8 -8 -8 -8 -8 -8 -8 -8 -8 -8 -8 -8 -8 -8 -8 -8 -8 -8 -8 -8 -8 -8 -8 -8 -8
-8 -8 -8 -8 -8 -8 -8 -8 -8 -8 -8 -8 -8 -8 -8 -8 -8 -8 -8 -8 -8 -8 -8 -8 -8 -8 -8 -7 -7 -7 -8 -8 -8 -8 -8 -8 -8 -8 -8 -8 -8 -8 -8 -8 -8 -8 -8 -8 -8 -8 -8 -8 -8 -8 -8 -8 -8 -8 -8 -8 -8 -8 -8
-8 -8 -8 -8 -8 -8 -8 -8 -8 -8 -8 -8 -9 -9 -9 -8 -8 -8 -8 -8 -8 -8 -8 -8 -8 -8 -8 -8 -8 -8 -8 -8 -8 -8 -8 -8 -8 -8 -8 -8 -8 -8 -8 -8 -8 -8 -8 -8 -8 -8 -8 -8 -8 -8 -8 -8 -8 -8 -8 -8 -8 -8 -8
-8 -8 -8 -8 -8 -8 -8 -8 -8 -8 -8 -9 -9 -9 -9 -9 -9 -8 -8 -8 -8 -8 -8 -8 -8 -8 -8 -8 -8 -8 -8 -8 -8 -8 -8 -8 -8 -8 -8 -8 -8 -8 -8 -8 -8 -8 -8 -8 -8 -8 -8 -8 -8 -8 -8 -8 -8 -8 -8 -8 -8 -8 -8
Height
5867 5870 5872 5875 5878 5880 5883 5884 5885 5885 5886 5887 5888 5889 5891 5893 5895 5896 5898 5901 5903 5905 5908 5910 5912 5913 5916 5918 5920 5923 5925 5928 5929 5931 5932 5933 5935 5936 5937 5939 5939 5940 5941 5942 5943 5944 5945 5946 5946 5947 5948 5948 5949 5950 5951 5952 5953 5953 5953 5954 5954 5955 5955
5863 5865 5868 5872 5875 5878 5881 5882 5883 5884 5884 5885 5886 5888 5889 5892 5894 5896 5898 5899 5901 5904 5906 5908 5911 5912 5914 5916 5918 5921 5924 5926 5928 5930 5931 5933 5934 5935 5937 5938 5939 5940 5941 5942 5943 5944 5945 5945 5946 5947 5948 5948 5949 5950 5951 5952 5953 5954 5954 5954 5955 5955 5955
5861 5863 5865 5868 5871 5875 5878 5880 5881 5883 5884 5884 5885 5887 5888 5890 5892 5894 5896 5898 5900 5902 5904 5907 5909 5911 5912 5914 5917 5919 5922 5924 5926 5929 5930 5932 5933 5934 5936 5937 5938 5939 5940 5941 5942 5943 5944 5945 5946 5947 5948 5948 5949 5950 5951 5952 5953 5953 5954 5954 5955 5955 5955
5861 5862 5863 5865 5868 5872 5875 5877 5879 5881 5883 5883 5885 5886 5887 5888 5890 5891 5893 5896 5898 5900 5903 5905 5907 5909 5910 5912 5915 5917 5920 5923 5925 5927 5929 5930 5932 5933 5935 5936 5937 5939 5940 5941 5942 5943 5944 5945 5946 5947 5948 5948 5949 5950 5951 5952 5952 5953 5954 5954 5954 5954 5955
5859 5860 5861 5862 5865 5868 5871 5874 5876 5879 5881 5882 5883 5884 5884 5886 5887 5889 5891 5894 5896 5898 5900 5902 5905 5907 5909 5911 5913 5915 5918 5920 5923 5925 5927 5929 5930 5932 5934 5935 5937 5938 5939 5940 5941 5942 5943 5945 5946 5947 5947 5948 5948 5949 5950 5951 5952 5952 5953 5953 5953 5954 5954
5857 5858 5859 5860 5862 5865 5868 5871 5874 5876 5878 5880 5881 5882 5883 5884 5886 5888 5890 5892 5894 5897 5899 5900 5903 5905 5907 5909 5911 5913 5915 5918 5921 5923 5925 5927 5929 5931 5933 5934 5936 5937 5939 5940 5941 5942 5943 5944 5945 5946 5947 5948 5948 5949 5949 5950 5951 5952 5952 5952 5953 5953 5953
5855 5856 5857 5859 5860 5862 5865 5868 5871 5874 5876 5877 5878 5879 5880 5882 5884 5887 5889 5891 5893 5895 5898 5900 5902 5904 5906 5908 5910 5911 5914 5916 5918 5921 5923 5925 5927 5929 5931 5933 5935 5936 5938 5939 5941 5942 5943 5944 5945 5946 5947 5947 5948 5948 5949 5949 5950 5951 5951 5952 5952 5952 5952
5853 5855 5856 5857 5858 5860 5863 5865 5868 5871 5873 5874 5875 5876 5878 5880 5883 5885 5888 5890 5892 5894 5896 5899 5901 5903 5905 5907 5909 5910 5912 5914 5916 5918 5921 5923 5925 5927 5929 5931 5933 5935 5937 5938 5940 5941 5942 5943 5944 5945 5945 5946 5947 5948 5948 5949 5949 5950 5950 5951 5951 5951 5951
5852 5853 5854 5855 5857 5859 5861 5863 5866 5868 5870 5871 5873 5875 5877 5879 5881 5884 5886 5888 5890 5892 5895 5897 5899 5901 5903 5905 5907 5908 5910 5912 5914 5916 5918 5921 5923 5926 5928 5930 5932 5934 5935 5937 5938 5939 5941 5941 5942 5943 5944 5945 5946 5947 5947 5948 5948 5949 5949 5949 5950 5950 5949
5849 5851 5853 5854 5855 5857 5860 5862 5863 5865 5867 5869 5870 5872 5875 5877 5879 5882 5884 5886 5889 5891 5893 5895 5897 5899 5901 5903 5905 5906 5908 5910 5912 5914 5917 5919 5922 5924 5926 5928 5930 5932 5934 5935 5937 5938 5939 5940 5941 5942 5943 5943 5944 5945 5946 5946 5947 5948 5948 5948 5948 5948 5948
5845 5848 5850 5851 5853 5855 5857 5858 5860 5863 5865 5867 5868 5870 5873 5875 5877 5880 5882 5885 5887 5889 5890 5892 5895 5897 5899 5901 5903 5905 5907 5908 5910 5913 5915 5917 5919 5922 5923 5925 5928 5930 5932 5934 5935 5936 5937 5938 5939 5940 5941 5942 5942 5943 5944 5945 5945 5946 5947 5947 5947 5947 5947
5840 5843 5846 5848 5850 5852 5854 5856 5859 5862 5864 5865 5867 5869 5871 5873 5875 5878 5880 5882 5884 5886 5888 5890 5892 5895 5897 5899 5901 5903 5905 5907 5909 5911 5913 5915 5917 5919 5921 5923 5926 5928 5930 5932 5933 5934 5935 5937 5938 5939 5939 5940 5940 5941 5942 5943 5944 5945 5945 5946 5946 5946 5946
5834 5837 5841 5844 5847 5850 5852 5855 5858 5860 5862 5863 5865 5867 5869 5871 5873 5875 5878 5880 5881 5883 5886 5888 5890 5893 5895 5897 5899 5901 5903 5905 5907 5909 5911 5913 5915 5917 5919 5921 5923 5925 5927 5929 5931 5932 5934 5935 5936 5937 5937 5938 5939 5939 5940 5941 5942 5943 5944 5944 5945 5945 5944
5828 5831 5835 5839 5842 5846 5849 5853 5855 5858 5860 5861 5863 5865 5866 5868 5870 5873 5875 5877 5878 5881 5883 5886 5888 5891 5893 5895 5897 5899 5901 5903 5905 5906 5908 5910 5912 5914 5917 5919 5921 5923 5925 5927 5929 5931 5932 5933 5934 5935 5936 5937 5938 5938 5938 5939 5940 5941 5942 5942 5943 5943 5942
5826 5828 5830 5833 5837 5842 5846 5849 5852 5854 5857 5859 5860 5862 5864 5866 5868 5870 5872 5874 5876 5879 5881 5884 5886 5889 5891 5893 5895 5897 5899 5900 5902 5904 5906 5908 5910 5912 5915 5917 5919 5921 5923 5925 5927 5929 5930 5932 5933 5934 5935 5936 5936 5937 5937 5938 5938 5939 5940 5940 5941 5941 5941
5824 5826 5827 5829 5834 5838 5842 5846 5849 5852 5854 5856 5858 5860 5862 5864 5866 5868 5871 5873 5875 5877 5879 5882 5884 5886 5889 5891 5893 5894 5895 5897 5899 5901 5903 5906 5909 5911 5913 5915 5917 5919 5921 5923 5925 5926 5928 5930 5931 5932 5933 5934 5935 5936 5936 5936 5936 5937 5938 5938 5939 5939 5939
5820 5822 5824 5827 5831 5835 5839 5843 5846 5849 5851 5854 5856 5858 5860 5862 5864 5867 5869 5871 5873 5875 5877 5879 5882 5884 5886 5888 5889 5890 5892 5894 5897 5899 5901 5904 5907 5909 5911 5913 5915 5917 5919 5921 5923 5924 5926 5928 5929 5930 5931 5933 5934 5934 5935 5935 5935 5935 5936 5936 5937 5937 5937
5817 5820 5822 5825 5828 5832 5836 5840 5843 5846 5849 5852 5854 5856 5858 5860 5862 5864 5867 5869 5871 5873 5875 5877 5879 5881 5883 5884 5886 5888 5890 5893 5895 5897 5899 5902 5904 5907 5909 5911 5913 5916 5917 5919 5921 5923 5925 5926 5928 5929 5930 5931 5932 5933 5933 5933 5933 5934 5934 5934 5935 5935 5936
5815 5817 5820 5822 5825 5829 5833 5838 5841 5844 5847 5851 5853 5854 5857 5858 5860 5863 5865 5867 5869 5871 5873 5875 5877 5879 5880 5882 5884 5886 5888 5891 5893 5895 5898 5900 5902 5904 5907 5909 5912 5914 5916 5917 5919 5921 5923 5925 5926 5927 5928 5929 5930 5931 5932 5932 5932 5932 5932 5933 5933 5934 5934
5812 5814 5816 5819 5823 5827 5832 5836 5839 5842 5845 5849 5851 5853 5855 5856 5858 5860 5862 5864 5866 5868 5870 5872 5874 5876 5878 5880 5882 5884 5886 5889 5891 5894 5896 5898 5900 5903 5905 5908 5910 5912 5913 5915 5917 5919 5921 5923 5924 5925 5926 5927 5928 5929 5930 5930 5930 5930 5931 5931 5931 5932 5933
5810 5811 5813 5816 5820 5825 5830 5834 5837 5840 5843 5846 5848 5850 5851 5853 5855 5857 5859 5861 5863 5865 5868 5870 5872 5873 5875 5877 5880 5882 5885 5887 5890 5892 5894 5896 5899 5901 5904 5906 5908 5910 5911 5913 5915 5917 5919 5920 5921 5923 5924 5925 5926 5927 5928 5928 5928 5928 5929 5929 5930 5931 5932
5808 5810 5812 5815 5819 5824 5828 5832 5835 5838 5841 5844 5846 5847 5849 5851 5853 5855 5857 5859 5861 5863 5865 5867 5869 5871 5873 5876 5879 5881 5883 5886 5888 5890 5892 5895 5897 5900 5902 5904 5906 5908 5909 5911 5913 5915 5917 5918 5919 5921 5921 5922 5924 5925 5926 5925 5926 5926 5927 5927 5928 5929 5930
5807 5809 5811 5813 5817 5821 5825 5829 5833 5836 5839 5841 5844 5845 5847 5849 5850 5852 5854 5856 5859 5862 5864 5866 5868 5870 5873 5875 5877 5879 5882 5884 5886 5889 5891 5893 5896 5898 5900 5902 5904 5905 5907 5909 5911 5913 5914 5916 5917 5918 5919 5920 5921 5922 5923 5922 5923 5924 5924 5924 5925 5927 5929
5806 5808 5810 5812 5815 5818 5823 5827 5830 5833 5836 5838 5840 5842 5845 5847 5848 5850 5853 5855 5858 5861 5863 5865 5867 5869 5872 5874 5876 5878 5880 5883 5885 5887 5890 5892 5894 5896 5898 5899 5901 5903 5904 5907 5908 5910 5911 5912 5913 5915 5916 5917 5918 5919 5920 5920 5920 5921 5922 5922 5923 5925 5927
5805 5806 5808 5810 5813 5817 5821 5824 5827 5830 5832 5834 5837 5840 5842 5844 5846 5848 5851 5854 5857 5859 5862 5864 5866 5868 5870 5872 5874 5876 5879 5881 5884 5886 5888 5890 5892 5894 5895 5897 5899 5900 5902 5904 5906 5907 5908 5909 5911 5912 5914 5915 5915 5916 5917 5918 5918 5919 5920 5920 5920 5922 5924
5803 5805 5807 5809 5812 5815 5819 5821 5824 5827 5829 5832 5835 5838 5840 5842 5844 5847 5850 5853 5855 5858 5861 5863 5865 5867 5869 5871 5873 5875 5878 5880 5883 5885 5887 5889 5890 5892 5894 5895 5897 5898 5900 5902 5903 5904 5906 5907 5909 5910 5911 5912 5912 5913 5915 5915 5915 5916 5917 5918 5918 5920 5921
5801 5804 5806 5808 5811 5814 5817 5819 5822 5824 5827 5830 5833 5836 5838 5840 5843 5846 5849 5852 5855 5857 5860 5862 5864 5866 5868 5871 5873 5875 5877 5879 5881 5884 5886 5887 5889 5891 5892 5894 5895 5897 5898 5899 5900 5902 5903 5904 5906 5907 5907 5908 5909 5910 5912 5913 5913 5913 5914 5915 5916 5917 5918
5799 5802 5805 5807 5810 5813 5816 5818 5820 5823 5825 5828 5831 5834 5836 5839 5842 5845 5848 5851 5854 5857 5859 5861 5863 5865 5868 5870 5872 5874 5876 5878 5880 5882 5884 5886 5888 5890 5891 5892 5893 5895 5896 5897 5898 5899 5900 5901 5902 5904 5904 5905 5906 5908 5909 5910 5911 5911 5911 5912 5913 5913 5915
5796 5799 5803 5806 5808 5811 5814 5817 5819 5821 5824 5826 5829 5832 5835 5838 5841 5843 5846 5849 5852 5854 5857 5859 5861 5863 5866 5868 5870 5872 5874 5876 5878 5880 5882 5884 5886 5887 5889 5890 5891 5893 5894 5895 5896 5897 5898 5899 5900 5901 5902 5902 5904 5905 5906 5907 5908 5908 5909 5909 5910 5910 5912
5793 5797 5799 5802 5806 5809 5812 5815 5817 5820 5822 5825 5827 5830 5833 5836 5839 5841 5843 5846 5849 5851 5854 5856 5858 5861 5863 5865 5868 5870 5872 5873 5875 5877 5879 5881 5883 5884 5886 5887 5889 5890 5891 5893 5894 5895 5896 5896 5897 5898 5899 5900 5901 5902 5903 5903 5905 5906 5906 5907 5907 5908 5909
5790 5793 5796 5799 5803 5806 5809 5812 5814 5817 5820 5822 5825 5828 5831 5833 5836 5838 5841 5843 5846 5848 5851 5853 5855 5858 5860 5863 5865 5867 5869 5871 5873 5875 5876 5878 5880 5881 5883 5884 5886 5887 5889 5890 5891 5892 5893 5894 5894 5895 5896 5897 5898 5899 5900 5900 5902 5903 5904 5904 5905 5905 5906
5786 5790 5793 5796 5800 5803 5806 5809 5812 5815 5817 5820 5823 5826 5828 5830 5833 5836 5839 5840 5842 5844 5847 5850 5852 5855 5857 5860 5862 5865 5866 5868 5870 5872 5873 5875 5876 5878 5879 5881 5883 5884 5886 5887 5889 5890 5891 5891 5892 5892 5893 5894 5895 5896 5896 5897 5899 5900 5901 5901 5902 5903 5903
5782 5786 5789 5793 5797 5800 5803 5806 5809 5812 5815 5818 5820 5823 5825 5826 5829 5833 5836 5837 5838 5840 5842 5846 5848 5851 5853 5856 5858 5860 5863 5865 5867 5868 5870 5871 5873 5875 5876 5878 5879 5881 5882 5884 5885 5886 5888 5888 5889 5890 5890 5891 5892 5893 5893 5895 5896 5897 5898 5898 5899 5900 5900
5777 5781 5785 5789 5792 5796 5799 5802 5805 5809 5812 5814 5817 5820 5822 5824 5827 5829 5832 5834 5835 5837 5839 5842 5844 5847 5849 5851 5854 5856 5858 5860 5862 5864 5866 5867 5869 5871 5872 5874 5876 5877 5879 5880 5881 5882 5884 5885 5886 5887 5887 5888 5889 5890 5891 5892 5893 5894 5894 5895 5896 5896 5897
5773 5777 5781 5784 5788 5792 5795 5798 5802 5805 5808 5811 5813 5816 5818 5821 5823 5825 5827 5830 5832 5834 5836 5839 5841 5843 5845 5847 5849 5852 5854 5855 5857 5859 5861 5863 5865 5867 5868 5870 5871 5873 5874 5876 5877 5878 5880 5881 5882 5883 5884 5885 5886 5887 5888 5889 5890 5890 5891 5892 5892 5893 5894
5768 5773 5777 5780 5784 5787 5791 5794 5798 5801 5804 5807 5810 5813 5815 5817 5819 5821 5823 5826 5828 5830 5833 5835 5837 5839 5841 5843 5845 5847 5849 5851 5853 5855 5857 5858 5860 5862 5864 5865 5867 5869 5870 5872 5873 5874 5875 5877 5878 5879 5880 5881 5882 5883 5884 5885 5886 5886 5887 5888 5888 5889 5890
5764 5769 5772 5776 5780 5783 5787 5790 5793 5797 5800 5804 5807 5809 5811 5814 5816 5818 5820 5822 5825 5827 5829 5831 5833 5836 5838 5840 5841 5843 5845 5848 5849 5851 5853 5854 5856 5858 5859 5861 5863 5864 5866 5868 5869 5870 5871 5872 5873 5874 5875 5876 5878 5879 5880 5881 5882 5882 5883 5884 5884 5884 5885
5760 5765 5768 5772 5775 5779 5783 5786 5790 5793 5796 5800 5803 5806 5808 5811 5813 5814 5817 5819 5821 5823 5825 5828 5830 5832 5834 5836 5838 5840 5842 5844 5846 5847 5849 5850 5852 5854 5855 5857 5859 5860 5862 5863 5864 5865 5867 5868 5869 5869 5870 5872 5873 5874 5875 5876 5877 5878 5878 5879 5879 5880 5880
Wind_Speed
28 27 27 26 26 26 22 20 20 21 21 20 19 18 18 18 20 22 25 25 24 23 25 28 29 28 27 24 23 20 18 17 17 17 17 17 17 16 16 16 16 15 14 12 11 10 10 10 10 10 11 11 10 10 9 9 9 10 10 11 11 11 11
33 29 28 28 28 27 24 22 22 22 22 21 20 19 18 17 18 21 24 26 25 24 26 28 29 29 28 26 24 22 20 19 19 18 17 17 16 16 16 16 16 15 14 12 12 12 12 11 11 11 11 11 9 8 6 5 4 5 5 5 6 7 7
35 33 30 29 29 27 26 25 23 22 22 22 20 19 17 17 18 21 24 26 26 26 27 29 31 30 30 28 26 23 22 21 21 19 18 17 17 17 18 18 18 16 14 13 13 13 13 13 12 11 10 9 8 6 4 3 2 1 0 1 1 2 2
34 34 33 31 30 29 28 27 25 23 22 22 20 19 18 17 19 22 25 27 27 26 27 29 31 31 31 29 27 25 23 23 22 21 20 19 18 18 19 19 18 17 15 15 15 15 15 14 14 12 10 8 7 6 4 4 4 4 4 3 2 1 1
34 34 34 32 31 31 30 30 28 26 24 23 22 21 20 19 21 23 26 28 27 27 29 31 33 33 32 30 28 27 25 25 24 23 22 21 19 19 19 19 18 17 17 16 16 16 16 15 14 13 11 10 8 7 6 6 6 6 6 5 4 3 3
34 35 34 33 32 31 31 30 29 27 25 24 23 22 21 21 22 23 26 28 28 27 29 32 33 34 32 31 29 27 26 26 25 24 23 22 20 20 20 20 19 18 18 17 16 16 16 15 13 12 11 10 9 8 8 8 7 7 7 6 5 4 4
31 35 35 33 32 32 31 31 29 28 27 26 26 25 24 23 23 24 26 27 28 27 27 29 31 32 32 31 30 28 27 27 26 25 24 23 22 21 21 21 20 19 19 17 17 16 15 14 13 12 11 10 10 10 10 9 8 8 7 7 6 5 5
26 33 36 35 33 32 32 32 30 30 30 30 29 27 26 24 23 24 26 27 28 28 27 27 29 30 31 31 30 29 28 29 28 27 26 24 23 23 23 22 22 21 20 19 18 17 15 14 13 12 12 12 11 11 10 10 9 9 9 8 7 7 7
23 27 31 32 32 32 32 32 32 32 33 32 29 27 26 25 24 24 26 27 28 28 27 27 28 29 31 32 31 30 30 30 29 28 27 25 25 24 24 24 23 22 21 20 19 18 16 15 14 14 14 13 12 12 11 11 10 10 10 9 9 9 8
26 26 26 25 26 28 30 31 32 34 35 33 30 28 27 25 24 24 25 27 27 28 28 28 29 30 30 31 31 31 30 30 29 28 27 26 26 26 26 25 25 24 23 22 20 19 18 17 16 15 15 14 13 13 13 13 13 12 11 11 11 11 10
28 28 26 23 22 25 29 33 35 35 35 33 30 28 27 26 25 24 25 25 27 28 29 29 30 30 30 30 30 29 29 29 29 28 28 28 28 28 28 27 26 25 24 23 21 21 20 19 18 16 15 15 15 14 15 15 14 13 12 12 13 12 12
31 31 29 27 24 25 29 33 35 34 32 32 31 28 27 26 25 24 25 26 28 30 30 30 30 30 31 30 29 28 28 28 28 28 28 28 29 30 30 29 28 26 25 25 23 23 21 20 19 17 17 17 17 16 16 15 13 13 13 14 14 14 14
37 35 32 30 29 29 31 32 35 34 31 31 31 29 28 27 26 25 25 26 28 30 30 31 30 30 31 30 29 28 27 27 27 28 28 29 31 32 32 30 28 28 27 26 25 24 22 20 20 19 19 18 17 16 15 14 13 14 14 14 15 15 15
41 40 37 34 33 34 35 34 35 35 32 31 31 30 29 29 27 27 26 27 28 30 30 30 30 30 30 30 29 28 27 27 27 28 29 30 32 34 33 31 29 29 28 27 26 24 22 21 21 20 20 18 16 15 14 13 13 14 15 15 16 16 17
37 39 40 39 37 36 37 37 36 35 32 31 32 32 31 30 30 29 28 28 29 30 30 30 30 29 29 29 29 29 29 28 28 28 29 31 33 33 32 31 30 30 29 28 26 24 23 22 21 20 20 18 16 15 14 14 14 15 15 16 17 17 18
31 36 41 41 39 38 38 38 36 34 33 32 33 33 33 31 31 30 28 27 28 29 30 30 30 30 29 29 29 30 30 30 30 30 30 31 33 32 32 31 31 30 29 27 26 25 23 22 21 21 20 18 16 16 15 15 15 15 15 16 17 18 19
27 33 39 41 40 39 39 38 36 35 34 33 32 33 33 32 30 29 28 28 28 28 30 30 30 30 29 29 30 31 31 31 31 31 31 32 32 32 32 32 31 30 29 27 26 25 23 22 21 21 20 18 17 17 16 16 15 15 16 17 18 19 19
26 31 37 40 40 39 38 36 35 37 35 31 32 34 34 32 31 29 29 29 28 29 30 30 30 30 30 30 31 31 30 31 31 32 32 32 32 32 32 32 31 29 28 27 26 25 23 22 21 21 20 19 18 18 17 17 17 16 17 18 19 20 20
26 30 34 37 38 38 36 34 35 38 34 31 32 33 32 31 29 28 29 30 30 30 29 29 28 29 30 31 31 30 30 31 32 32 32 32 32 32 32 31 29 28 28 27 27 25 23 22 22 21 20 20 19 18 18 18 18 17 17 18 20 20 21
27 30 32 34 36 37 34 32 33 35 33 31 32 32 31 30 29 29 31 32 31 31 30 29 29 29 31 31 31 31 32 32 32 32 32 32 31 31 31 29 28 28 28 28 26 24 23 23 23 22 21 20 20 19 19 19 19 18 18 19 21 21 21
29 29 30 32 35 36 35 34 34 33 32 33 34 33 32 31 31 31 32 32 32 32 31 31 31 31 32 32 32 32 32 32 32 32 31 31 31 30 29 28 28 28 28 27 26 24 24 24 23 22 22 21 21 20 20 21 21 20 19 21 22 22 21
28 29 29 30 34 37 37 36 34 33 34 35 34 34 32 31 31 32 33 33 33 32 32 32 32 32 32 32 32 32 32 32 31 31 31 30 29 29 27 27 27 27 27 26 25 25 25 24 23 23 23 23 22 21 22 23 22 21 21 23 23 23 22
26 28 29 30 34 38 39 37 35 34 35 36 35 35 34 32 32 34 35 34 33 31 31 31 31 32 31 31 31 31 31 31 30 29 28 27 26 26 26 26 26 26 27 26 26 25 25 25 24 25 25 25 24 23 24 25 24 23 23 24 25 24 23
24 26 28 31 35 38 38 37 37 36 37 38 38 38 36 34 34 35 36 34 32 31 30 29 29 30 30 30 31 31 30 29 29 27 26 25 25 25 26 26 27 27 28 28 27 27 27 27 27 26 26 26 26 26 26 26 26 25 25 26 26 25 25
25 25 28 32 36 38 38 37 38 39 39 40 40 40 39 38 35 35 35 34 33 31 29 28 28 28 28 29 29 28 27 27 27 26 25 25 25 25 26 26 27 28 28 28 29 29 29 29 28 28 27 27 28 28 28 27 27 27 26 26 27 26 26
27 24 25 32 37 38 39 38 37 38 39 39 39 40 40 40 36 34 34 34 32 31 29 28 28 27 27 28 27 26 25 25 26 26 25 24 24 24 25 25 26 26 27 27 29 29 29 29 29 29 29 29 30 30 29 28 29 28 27 27 27 27 27
29 24 23 31 39 40 39 38 36 36 37 37 37 39 39 39 35 32 32 33 31 29 28 29 29 28 27 27 26 25 26 26 26 25 25 24 23 22 22 22 23 23 24 25 27 28 28 29 29 29 30 31 32 31 29 29 29 29 28 27 28 28 28
31 27 25 32 40 41 40 39 37 36 37 36 36 37 37 35 33 31 31 31 30 29 29 29 29 29 28 27 26 26 26 26 26 25 24 24 23 21 21 21 21 21 21 22 23 24 26 27 27 28 29 31 32 31 30 29 29 29 29 28 28 28 28
32 29 27 33 42 43 42 41 39 37 37 36 35 36 35 33 32 31 32 32 32 32 32 31 31 32 31 30 28 28 29 28 27 27 27 26 25 24 23 22 21 21 20 20 19 20 21 24 25 26 27 28 29 30 29 29 29 28 28 28 28 28 27
34 30 28 35 44 46 44 44 42 39 38 37 36 35 34 33 32 33 35 35 35 35 35 34 35 35 34 33 32 31 31 31 30 30 30 29 29 28 27 26 25 23 22 21 20 18 18 20 23 24 24 25 26 28 29 29 29 28 28 28 28 28 27
36 31 30 37 45 47 46 45 44 42 40 39 37 35 34 33 32 33 36 37 37 37 37 37 38 38 37 36 34 33 32 32 31 31 30 30 30 30 30 29 28 27 26 24 23 20 18 18 20 23 24 24 24 26 28 29 29 28 27 27 26 26 25
37 34 33 39 46 48 48 47 45 43 42 40 37 35 34 33 33 33 35 37 39 41 41 41 40 41 40 39 37 36 35 33 33 32 31 31 31 32 32 31 30 30 29 27 26 24 22 21 19 20 22 24 25 26 27 28 28 27 26 25 24 24 24
40 38 37 39 44 47 48 47 45 43 41 38 34 32 32 32 33 33 35 37 39 41 43 45 45 44 44 43 42 41 39 38 37 37 36 36 35 35 34 33 33 32 31 31 30 28 27 26 23 21 21 22 24 25 26 26 25 24 24 24 24 24 24
43 41 39 40 42 44 45 45 43 40 38 36 34 33 33 33 34 36 38 38 38 38 40 45 48 49 49 49 48 46 45 44 42 41 41 41 40 39 39 38 37 36 35 34 34 33 32 31 29 27 25 24 25 25 25 25 25 25 25 25 25 26 27
47 44 42 42 43 44 44 43 42 39 38 37 36 36 36 37 38 39 40 40 40 39 39 42 46 49 51 51 49 48 48 47 45 44 44 44 44 44 44 43 41 40 39 38 37 36 35 34 34 32 31 30 28 28 27 27 28 28 29 29 29 30 30
51 47 45 44 44 46 46 45 43 41 40 38 36 35 36 37 39 39 40 40 41 41 41 42 43 46 48 49 47 46 47 47 46 45 46 47 48 48 48 47 46 45 43 42 41 40 38 37 37 37 36 34 33 32 31 31 32 32 33 33 33 33 33
53 51 48 46 45 46 47 47 45 43 41 38 35 34 34 35 35 36 38 39 40 42 42 43 43 44 45 46 46 46 46 46 46 47 48 49 50 50 50 49 49 48 46 45 45 44 43 41 40 41 40 38 36 35 35 35 35 35 35 35 35 36 36
53 52 50 48 47 46 47 46 45 43 41 38 36 34 33 33 32 33 34 36 38 39 40 42 43 44 45 46 46 47 47 47 48 49 49 50 50 50 50 49 49 48 48 47 47 47 46 45 45 44 43 41 39 38 38 38 38 37 37 37 38 38 38
Wind_Direction
207 213 218 215 213 213 210 205 202 199 194 192 193 193 194 198 199 199 197 196 199 201 197 192 188 185 185 190 192 193 192 189 194 200 200 201 203 204 201 195 191 191 190 186 184 180 172 167 160 150 142 133 123 115 106 97 89 84 81 78 76 76 78
204 206 211 214 213 211 208 206 205 203 198 194 193 192 192 197 200 201 198 195 195 198 196 192 190 187 186 190 191 192 191 191 196 201 201 202 204 204 202 199 198 196 192 185 178 174 171 170 166 156 148 141 135 131 125 115 103 89 86 85 81 78 76
205 206 207 210 213 211 206 206 207 207 203 197 194 190 188 193 199 199 198 195 194 196 195 192 191 189 189 190 190 190 191 192 196 199 200 202 203 202 201 200 199 198 191 182 175 174 173 172 169 163 157 153 151 154 160 170 186 210 203 112 100 94 84
204 208 208 207 210 210 205 204 206 209 206 199 193 188 186 192 197 197 196 195 194 194 194 193 193 192 192 191 189 189 190 193 196 198 199 201 203 202 201 200 199 195 189 183 179 176 175 174 172 171 172 176 182 188 203 223 238 252 261 265 258 240 227
203 204 208 207 207 206 204 202 204 207 206 199 193 189 187 192 196 196 195 194 194 193 193 194 194 195 195 193 190 189 189 193 197 199 200 200 202 203 203 202 198 194 188 185 182 178 177 177 179 183 188 197 209 218 231 244 251 255 257 259 256 249 243
205 202 206 209 208 204 202 201 202 206 206 199 194 192 191 193 195 197 196 195 195 194 195 196 196 197 197 195 193 191 190 193 198 201 202 201 200 200 203 202 198 194 189 186 184 182 182 185 190 198 206 213 225 236 246 251 252 252 251 249 248 245 241
204 202 204 208 209 205 201 201 202 205 206 200 196 194 193 193 194 196 198 197 197 197 197 199 200 201 200 198 196 194 192 194 198 202 204 203 199 198 202 202 198 195 192 189 189 188 190 196 203 213 224 231 238 245 250 251 248 246 244 243 244 243 241
201 203 205 208 209 207 203 201 201 203 203 201 199 196 194 193 193 196 198 200 201 200 198 200 202 204 204 203 200 198 195 196 198 202 204 204 201 199 201 202 201 199 196 194 195 196 200 208 216 226 236 242 246 248 248 248 245 243 243 243 243 241 240
199 201 207 212 213 213 209 203 201 202 202 201 201 198 194 193 193 196 200 202 203 202 201 202 203 205 206 206 203 201 200 199 200 202 204 204 202 201 202 203 203 202 200 200 201 203 208 217 224 232 240 244 244 245 246 247 248 246 246 247 244 241 238
200 198 202 212 218 218 215 209 205 202 202 201 200 199 195 192 193 198 202 204 204 204 204 205 205 206 207 206 206 205 203 203 203 204 204 205 204 203 202 204 205 205 204 205 207 210 216 222 227 232 236 239 240 241 245 248 248 247 247 248 247 244 239
205 202 198 205 216 220 217 214 210 204 202 203 201 200 197 192 194 199 204 206 206 206 206 206 206 207 207 207 207 207 206 206 206 206 206 205 205 204 204 205 206 206 207 209 210 215 220 224 227 228 229 233 237 241 246 250 251 250 249 248 249 248 243
205 206 201 199 208 218 220 216 210 205 204 205 204 202 198 194 195 199 203 208 209 208 207 206 206 206 207 208 208 208 209 209 209 209 208 207 206 205 206 206 206 206 206 209 212 216 220 223 225 224 226 232 239 244 248 249 250 251 252 252 253 251 246
203 203 202 200 200 210 218 216 211 209 208 208 206 202 197 195 196 198 202 208 210 210 208 207 206 206 206 207 208 210 211 211 211 211 210 208 207 206 207 206 205 205 206 209 213 216 219 221 222 223 228 235 241 246 248 247 248 252 254 257 256 253 249
205 200 199 200 198 203 210 213 214 216 215 210 205 200 197 195 196 198 202 207 209 210 209 207 206 206 206 206 207 209 211 211 212 212 211 209 207 207 207 205 204 205 206 209 212 215 216 219 222 225 231 236 240 244 248 249 249 252 255 256 255 253 248
211 204 200 198 197 200 204 207 212 216 215 212 205 200 197 196 197 200 203 206 208 208 208 207 205 205 206 206 206 208 210 210 210 210 210 208 207 207 207 205 204 205 207 209 211 213 214 218 223 229 232 235 237 240 245 248 251 254 256 255 253 250 247
215 211 205 198 195 197 200 204 210 214 214 212 207 200 197 197 199 202 204 206 206 205 205 205 204 204 204 205 207 209 210 210 208 206 206 206 207 208 207 206 206 206 208 209 211 212 214 218 224 228 231 233 235 238 242 245 250 254 255 253 251 249 246
211 212 208 199 193 195 199 204 210 215 215 213 208 201 197 199 200 202 205 205 204 203 202 202 202 202 203 204 207 209 210 209 206 202 202 203 206 208 208 208 208 208 209 210 211 213 216 220 223 227 230 232 235 239 242 246 251 254 253 251 249 247 243
204 207 208 200 193 194 199 203 209 215 215 213 209 203 198 199 200 203 205 204 203 202 200 200 200 200 202 204 206 208 208 207 203 199 200 203 206 209 210 210 210 209 209 210 212 215 217 220 223 226 229 233 236 239 242 246 251 253 252 248 246 244 239
204 206 208 204 198 197 199 202 208 215 214 212 210 205 200 200 200 202 204 203 204 203 199 198 198 199 201 203 204 204 203 202 200 200 202 205 209 211 212 212 212 211 211 211 213 216 217 219 222 225 229 234 238 241 244 248 252 252 249 246 243 240 237
208 207 207 206 203 200 199 202 208 211 209 207 206 202 199 199 198 199 202 202 203 202 199 197 197 198 201 202 201 201 200 200 200 202 205 208 211 213 214 214 214 212 212 213 215 217 218 221 223 225 229 234 238 242 246 250 252 251 249 246 242 239 237
206 204 202 203 203 201 200 203 206 204 201 200 199 198 198 198 197 199 200 201 202 202 200 198 197 198 200 201 200 200 201 202 203 205 208 210 212 214 214 214 213 213 213 215 217 218 219 222 224 227 230 234 238 242 247 250 251 250 249 246 243 240 238
201 197 194 196 199 198 198 202 203 201 200 199 197 198 199 199 198 199 199 201 202 202 200 200 199 199 200 200 201 202 203 204 205 207 209 211 212 213 214 213 213 214 216 218 219 220 221 223 225 228 232 236 239 242 246 249 249 249 248 246 243 240 236
199 195 190 189 191 191 193 198 201 202 203 202 201 202 203 201 199 199 200 201 203 203 202 201 201 201 201 201 202 203 204 205 206 207 208 209 211 212 213 214 215 216 218 219 220 220 222 223 225 228 232 236 240 242 243 246 247 247 246 246 245 241 236
200 199 195 191 190 190 192 196 199 203 204 205 205 205 205 204 203 202 201 202 204 205 204 202 203 203 202 201 203 204 204 204 204 204 204 206 209 211 214 215 216 218 219 220 221 221 222 224 225 227 231 236 241 243 243 246 249 249 248 248 247 245 241
200 202 199 197 194 191 192 196 199 203 207 208 208 207 205 206 206 204 203 203 205 207 205 201 201 201 200 200 202 203 202 201 200 201 203 207 210 212 216 218 220 223 224 225 226 226 227 228 228 229 231 235 240 244 245 247 250 252 252 251 251 249 247
200 202 201 199 194 187 190 197 201 205 209 211 210 207 206 207 207 205 203 204 205 206 203 198 197 197 197 197 199 199 197 196 197 200 203 207 211 214 218 221 224 227 229 231 232 233 233 234 233 233 233 234 238 242 244 246 250 254 254 254 254 253 251
201 204 203 199 192 186 190 197 200 202 207 209 207 206 207 208 209 208 205 204 205 204 200 196 195 194 195 196 198 197 196 196 198 201 203 206 210 215 220 224 227 228 231 233 235 236 237 237 236 235 235 235 237 239 242 244 248 253 256 257 257 257 255
204 205 206 201 193 188 192 199 201 201 205 207 206 206 208 209 211 210 207 205 204 202 200 198 195 194 196 199 200 200 200 202 202 203 206 209 212 216 221 227 230 230 231 234 237 238 239 238 238 237 237 238 238 237 239 242 245 250 255 258 259 259 259
206 206 207 203 196 191 193 201 205 205 207 209 209 209 209 210 210 210 208 206 203 202 202 200 197 196 197 199 201 203 203 204 206 207 210 213 216 220 223 227 232 235 237 241 243 245 245 242 241 241 241 241 241 239 239 240 243 247 253 257 260 261 261
208 209 208 202 196 193 196 203 207 209 210 212 212 210 209 210 210 209 208 207 205 204 203 202 199 198 198 199 202 207 207 207 209 213 215 217 219 222 226 228 230 233 238 243 247 252 253 247 242 242 242 243 242 241 240 241 243 247 251 255 259 261 261
209 208 205 200 196 194 198 204 208 210 213 215 215 213 212 210 210 210 210 209 208 206 204 204 203 202 201 201 204 209 211 211 213 216 218 221 224 226 230 232 233 234 235 237 242 248 254 253 247 241 239 240 240 241 241 243 245 248 251 254 256 258 259
208 205 201 199 197 196 200 205 208 210 212 215 216 216 216 215 213 213 214 214 213 209 205 204 205 204 203 203 206 210 213 214 215 217 220 223 227 229 232 235 237 239 238 237 238 242 247 252 252 245 239 237 238 240 242 245 246 248 249 251 253 255 256
205 202 200 200 199 199 203 207 209 211 213 215 215 215 216 215 213 214 215 217 219 217 210 206 206 206 206 206 208 210 212 214 216 218 221 223 226 230 232 235 238 240 241 241 241 240 242 245 248 246 242 239 239 240 241 244 246 248 250 253 255 257 258
201 201 201 201 200 201 204 207 208 210 213 214 214 213 212 210 209 210 212 215 219 222 218 212 210 209 210 213 214 212 212 213 215 218 221 223 226 228 231 233 236 238 240 242 243 243 242 242 243 243 242 242 242 242 243 244 246 248 251 254 255 256 256
200 201 201 203 202 202 205 207 208 211 214 214 213 213 212 211 210 210 212 214 217 220 221 219 217 215 217 220 221 217 213 213 215 219 222 225 227 229 230 232 234 235 237 239 242 243 244 244 244 243 243 243 242 242 242 243 244 246 247 249 250 251 253
199 200 201 202 204 205 207 209 210 212 213 212 212 212 213 213 214 214 214 215 217 220 222 223 223 222 222 224 224 220 217 217 219 222 225 228 229 230 231 232 234 235 236 238 240 242 244 246 246 247 247 246 245 244 243 242 242 243 245 246 248 250 252
199 201 201 202 204 206 208 210 211 211 212 211 212 213 214 215 216 217 217 217 219 221 223 224 226 226 226 226 227 226 225 225 225 226 228 231 233 234 235 236 237 238 239 239 240 241 242 244 247 249 250 249 247 246 245 244 244 245 246 248 250 252 253
199 201 202 202 204 206 208 209 210 211 211 212 213 215 216 217 219 219 219 219 220 221 223 224 226 227 228 229 230 231 232 233 232 232 233 235 237 238 240 242 243 243 243 244 244 244 244 244 246 248 250 251 250 249 249 248 249 250 252 253 255 256 257